{"data":{"norad_id":25933,"epoch":"2026-09-19T03:46:01.985088Z","epoch_age_seconds":128162,"freshness":"FRESH","line1":"1 25933U 99055A   26262.15696742 -.00000021  00000+0  00000+0 0  9990","line2":"2 25933  51.3786 291.3478 0104620 180.3443 272.3709  2.00557657197468","mean_motion":2.00557657,"eccentricity":0.010462,"inclination_deg":51.3786,"raan_deg":291.3478,"arg_perigee_deg":180.3443,"mean_anomaly_deg":272.3709,"bstar":0,"rev_number":19746,"period_min":717.99801689945,"perigee_km":19904.85601367,"apogee_km":20460.615717509,"semimajor_km":26560.87286559,"source":"CELESTRAK","updated_at":"2026-09-20T09:00:13.532404Z"}}